Location: Munkebjergskolens Observatorium
(55.3864°N, 10.3987°E)
Time: 14:35:00
(UTC+01:00)

BlueWalker 3 - Pass Details

Date: 02 December 2022
Orbit: 499 x 517 km, 53.2° (Epoch: 30 January)

Event Time Altitude Azimuth Distance (km) Brightness Sun altitude
Rises 17:00:25 0° 247° (WSW) 2,629 8.1 -9.0°
Reaches altitude 10° 17:02:39 10° 242° (WSW) 1,740 6.4 -9.2°
Maximum altitude 17:06:29 53° 166° (SSE) 638 2.5 -9.7°
Enters shadow 17:09:58 12° 90° (E) 1,603 3.9 -10.2°
